Location: Saint Louis
(38.6272°N, 90.1978°W)
Time: 19:39:55
(UTC-05:00)

ISS - Pass Details

Date: 17 July 2013
Orbit: 402 x 404 km, 51.6° (Epoch: 25 May)

Event Time Altitude Azimuth Distance (km) Brightness Sun altitude
Rises 13:46:42 0° 295° (WNW) 2,345 0.6 70.6°
Reaches altitude 10° 13:49:13 10° 276° (W) 1,475 -0.2 70.4°
Drops below altitude 10° 13:53:58 10° 183° (S) 1,460 -0.1 69.9°
Enters shadow 14:21:29 -55° 136° (SE) 10,862 3.4 66.4°
Exits shadow 14:57:24 -55° 333° (NNW) 10,918 3.4 60.6°
Maximum altitude 04:55:23 27° 133° (SE) 835 -1.6 -9.8°
Sets 05:00:34 0° 61° (ENE) 2,363 2.8 -9.0°
